This demonstration page uses our WeatherBlox Daily Observations layout. Learn more.

Left ArrowRight Arrow

Hourly Observations for May 19, 2020

Temp ( °F °C ) Dew Point ( °F °C ) Humidity (%) Winds ( mph kmh ) Pressure ( in mb ) Visibility ( mi km ) Precip ( " mm )
12:52 am 00:52 Cloudy 56 13.3 51 10.6 84 84 N 6 9 29.98 1015 10 16 0.00 0.00
1:52 am 01:52 Cloudy 56 13.3 52 11.1 87 87 NNE 7 11 29.98 1015 10 16 0.00 0.00
2:52 am 02:52 Cloudy 55 12.8 52 11.1 90 90 N 3 6 29.97 1015 10 16 0.00 0.00
3:03 am 03:03 Cloudy 55 12.8 52 11.1 90 90 Calm 29.97 1015 10 16 0.00 0.00
3:29 am 03:29 Cloudy 55 12.8 52 11.1 90 90 N 5 7 29.97 1015 10 16 0.00 0.00
3:52 am 03:52 Cloudy 55 12.8 52 11.1 90 90 NE 3 6 29.98 1015 10 16 0.00 0.00
4:35 am 04:35 Cloudy with Light Rain 54 12.2 53 11.7 97 97 N 5 7 29.98 1015 3 4 0.00 0.00
4:52 am 04:52 Cloudy with Drizzle 54 12.2 53 11.7 97 97 N 7 11 29.98 1015 3 4 0.00 0.00
5:06 am 05:06 Cloudy with Drizzle 54 12.2 52 11.1 93 93 N 8 13 29.99 1016 3 4 0.00 0.00
5:52 am 05:52 Cloudy with Drizzle 53 11.7 52 11.1 96 96 N 7 11 30.00 1016 4 6 0.00 0.00
6:52 am 06:52 Cloudy 54 12.2 52 11.1 93 93 N 6 9 30.01 1016 10 16 0.00 0.00
7:52 am 07:52 Cloudy 55 12.8 52 11.1 90 90 NE 8 13 30.02 1017 10 16 0.00 0.00
8:52 am 08:52 Cloudy 55 12.8 50 10 83 83 NE 10 17 30.03 1017 10 16 0.00 0.00
9:52 am 09:52 Cloudy 56 13.3 50 10 81 81 NNE 7 11 30.03 1017 10 16 0.00 0.00
10:10 am 10:10 Cloudy 56 13.3 50 10 81 81 NE 10 17 30.04 1017 10 16 0.00 0.00
10:52 am 10:52 Cloudy 57 13.9 50 10 78 78 NE 8 13 30.03 1017 10 16 0.00 0.00
11:52 am 11:52 Cloudy 58 14.4 51 10.6 78 78 ENE 10 17 30.03 1017 10 16 0.00 0.00
12:08 pm 12:08 Cloudy 58 14.4 51 10.6 78 78 NNE 6 9 30.03 1017 10 16 0.00 0.00
12:52 pm 12:52 Cloudy 60 15.6 51 10.6 72 72 NE 9 15 30.02 1017 10 16 0.00 0.00
12:59 pm 12:59 Cloudy 60 15.6 51 10.6 72 72 E 7 11 30.02 1017 10 16 0.00 0.00
1:52 pm 13:52 Cloudy 60 15.6 51 10.6 72 72 ENE 7 11 30.01 1016 10 16 0.00 0.00
2:52 pm 14:52 Cloudy 62 16.7 52 11.1 70 70 ENE 7 11 30.00 1016 10 16 0.00 0.00
3:52 pm 15:52 Cloudy 63 17.2 52 11.1 68 68 E 6 9 29.99 1016 10 16 0.00 0.00
4:52 pm 16:52 Cloudy 64 17.8 52 11.1 65 65 NE 8 13 29.98 1015 10 16 0.00 0.00
5:52 pm 17:52 Mostly Cloudy 64 17.8 52 11.1 65 65 ENE 9 15 29.97 1015 10 16 0.00 0.00
6:52 pm 18:52 Cloudy 63 17.2 52 11.1 68 68 E 10 17 29.97 1015 10 16 0.00 0.00
7:52 pm 19:52 Cloudy 62 16.7 53 11.7 73 73 E 7 11 29.98 1015 10 16 0.00 0.00
8:52 pm 20:52 Cloudy 61 16.1 53 11.7 75 75 E 6 9 29.99 1016 10 16 0.00 0.00
9:52 pm 21:52 Cloudy 61 16.1 53 11.7 75 75 E 6 9 30.01 1016 10 16 0.00 0.00
10:52 pm 22:52 Cloudy 61 16.1 53 11.7 75 75 ESE 8 13 30.02 1017 10 16 0.00 0.00
11:52 pm 23:52 Cloudy 60 15.6 53 11.7 78 78 ESE 9 15 30.01 1016 10 16 0.00 0.00

Powered by AerisWeather